Tracking 30417 objects as of 16-May-2025
HD Live streaming from Space Station
objects crossing your sky now

FENGYUN 1C DEB

Track FENGYUN 1C DEB now!
10-day predictions


NORAD ID: 30477
Int'l Code: 1999-025AGQ
Perigee: 851.5 km
Apogee: 1,507.7 km
Inclination: 99.4 °
Period: 108.8 minutes
Semi major axis: 7550 km
RCS: 0.0105 m2 (small)
Launch date: May 10, 1999
Source: People's Republic of China (PRC)
Launch site: Taiyaun Space Center, China (TSC)

Note: This is SATELLITE DEBRIS
Your satellite tracking list
Your tracking list is empty




NASA's NSSDC Master Catalog

Two Line Element Set (TLE):
1 30477U 99025AGQ 25136.21639638  .00000295  00000-0  47437-3 0  9995
2 30477  99.4237 238.8841 0434570  63.4821  13.0376 13.23212567879341
Source of the keplerian elements: AFSPC